sat.trackr.live / text

‹ back to catalog

STARLINK-5492

NORAD 55331 · 2023-013A

PAYLOAD ACTIVE UNKNOWN

§ Identity

Operator
Country
US
Launch date
2023-01-26
Launch site
AFETR
Launch vehicle
Mass (kg)
RCS (m²)

Purposes: comms

External: N2YO · Heavens-Above · Gunter

§ Orbital elements

Epoch: 2026-05-24T22:30:44.400096Z

Period
94.27 min
Inclination
43.0018°
Eccentricity
0.0001317
Mean motion
15.27576048 rev/d
Perigee alt
482.2 km
Apogee alt
484.0 km
Semi-major
6,861.2 km
B*
-5.5442e-6
RAAN
232.8840°
Arg perigee
270.2045°
Mean anomaly
89.8656°
Rev number
18,441

§ Raw data

STARLINK-54921 55331U 23013A   26144.93801389 -.00000415  00000+0 -55442-5 0  99902 55331  43.0018 232.8840 0001317 270.2045  89.8656 15.27576048184419

JSON: /api/v1/satellites/55331 · /tle

For live sub-satellite position, see the globe view (requires WebGL).

§ Visibility from observer

Set your observer location to see the next 7 days of passes ≥ 10°. The values pass through the URL so the page stays shareable.

No JS? Fill the form by hand. The geolocation button needs JavaScript.